This is the latest recevied weather packets stored in our database for station/object 4S6DRJ-13. If no packets are shown the sender has not sent any weather packets the latest 10 day(s).
| Time | Temp. | Humidity | Pressure | Rain* | Wind** | Luminosity | Snow |
|---|---|---|---|---|---|---|---|
| 1787911176 | 30° C | 79% | 1007.7 hPa | 0 mm | 1.79 m/s, 245° | 887 W/m² | - |
| 1787911116 | 30° C | 77% | 1007.8 hPa | 0 mm | 2.68 m/s, 203° | 818 W/m² | - |
| 1787911054 | 30° C | 77% | 1007.6 hPa | 0 mm | 2.24 m/s, 243° | 177 W/m² | - |
| 1787910993 | 30° C | 76% | 1007.7 hPa | 0 mm | 2.24 m/s, 292° | 144 W/m² | - |
| 1787910932 | 30.56° C | 75% | 1007.9 hPa | 0 mm | 1.79 m/s, 167° | 161 W/m² | - |
| 1787910871 | 30.56° C | 75% | 1007.8 hPa | 0 mm | 1.79 m/s, 7° | 185 W/m² | - |
| 1787910810 | 30.56° C | 75% | 1007.7 hPa | 0 mm | 1.79 m/s, 111° | 226 W/m² | - |
| 1787910749 | 30.56° C | 75% | 1007.8 hPa | 0 mm | 2.68 m/s, 235° | 263 W/m² | - |
| 1787910688 | 30.56° C | 75% | 1007.6 hPa | 0 mm | 1.34 m/s, 359° | 706 W/m² | - |
| 1787910627 | 30.56° C | 74% | 1007.7 hPa | 0 mm | 1.79 m/s, 185° | 259 W/m² | - |
| 1787910566 | 30.56° C | 74% | 1007.8 hPa | 0 mm | 1.79 m/s, 250° | 320 W/m² | - |
| 1787910505 | 30.56° C | 74% | 1007.8 hPa | 0 mm | 2.68 m/s, 314° | 355 W/m² | - |
| 1787910445 | 30.56° C | 74% | 1008 hPa | 0 mm | 2.68 m/s, 202° | 569 W/m² | - |
| 1787910383 | 30.56° C | 75% | 1007.7 hPa | 0 mm | 0.89 m/s, 280° | 598 W/m² | - |
| 1787910323 | 30.56° C | 75% | 1007.9 hPa | 0 mm | 1.34 m/s, 241° | 809 W/m² | - |
| 1787910261 | 30.56° C | 76% | 1008 hPa | 0 mm | 3.13 m/s, 222° | 834 W/m² | - |
| 1787910201 | 30.56° C | 76% | 1007.7 hPa | 0 mm | 1.79 m/s, 255° | 814 W/m² | - |
| 1787910140 | 30° C | 76% | 1007.8 hPa | 0 mm | 2.24 m/s, 189° | 742 W/m² | - |
| 1787910078 | 30° C | 76% | 1007.7 hPa | 0 mm | 0.89 m/s, 242° | 815 W/m² | - |
| 1787910017 | 30.56° C | 76% | 1007.8 hPa | 0 mm | 1.79 m/s, 225° | 824 W/m² | - |
| 1787909956 | 30.56° C | 75% | 1007.9 hPa | 0 mm | 2.68 m/s, 208° | 275 W/m² | - |
| 1787909895 | 30.56° C | 74% | 1007.9 hPa | 0 mm | 1.79 m/s, 315° | 235 W/m² | - |
| 1787909835 | 30.56° C | 74% | 1007.8 hPa | 0 mm | 1.79 m/s, 196° | 239 W/m² | - |
| 1787909773 | 30.56° C | 74% | 1007.9 hPa | 0 mm | 2.24 m/s, 184° | 270 W/m² | - |
| 1787909712 | 31.11° C | 73% | 1007.8 hPa | 0 mm | 1.79 m/s, 195° | 265 W/m² | - |
* Rain latest hour (hover to see other rain measurements)
** Current wind speed in m/s (hover to see current wind gust speed)